FW2255 Weather Reports


time (UTC)temp
F
wind
direction
speed
knots
gust
knots
rain 1hr
in
rain 24hr
in
rain mn
in
humidity
%
barometer
mb
20260507121055 55 0 0.0 0.9 0.00 0.72 0.57 65 1012.8
20260507120553 55 0 0.0 1.7 0.00 0.72 0.57 66 1012.7
20260507120055 55 0 0.0 1.7 0.00 0.72 0.57 66 1013.0
20260507115555 55 204 0.0 1.7 0.00 0.72 0.57 67 1013.1
20260507115057 55 0 0.0 1.7 0.00 0.72 0.57 68 1013.1
20260507114609 55 0 0.0 0.0 0.00 0.72 0.57 69 1012.9
20260507114054 55 0 0.0 0.9 0.00 0.72 0.57 69 1013.0
20260507113557 55 0 0.0 0.9 0.00 0.72 0.57 69 1012.7
20260507113128 55 0 0.0 0.9 0.00 0.72 0.57 71 1012.6
20260507112554 55 0 0.0 0.0 0.00 0.72 0.57 72 1012.8
20260507112055 55 0 0.0 0.0 0.00 0.72 0.57 72 1012.7
20260507111558 55 0 0.0 0.0 0.00 0.72 0.57 72 1012.7
20260507111055 55 0 0.0 0.0 0.00 0.72 0.57 72 1012.8
20260507110554 55 0 0.0 0.0 0.00 0.72 0.57 72 1012.7
20260507110056 55 0 0.0 0.0 0.00 0.72 0.57 72 1012.7
20260507105553 55 0 0.0 0.0 0.00 0.72 0.57 72 1012.7
20260507105054 55 0 0.0 0.0 0.00 0.72 0.57 73 1012.7
20260507104556 55 0 0.0 0.0 0.00 0.72 0.57 73 1012.6
20260507104055 54 0 0.0 0.0 0.00 0.72 0.57 72 1012.6
20260507103556 54 0 0.0 0.9 0.00 0.72 0.57 72 1012.5
20260507103059 54 0 0.0 0.9 0.00 0.72 0.57 72 1012.5
20260507102554 54 0 0.0 0.9 0.00 0.72 0.57 72 1012.3
20260507102055 54 0 0.0 0.0 0.00 0.72 0.57 72 1012.3
20260507101559 54 0 0.0 0.0 0.00 0.72 0.57 73 1012.2
20260507101055 54 0 0.0 0.0 0.00 0.72 0.57 73 1012.2
20260507100556 54 0 0.0 0.0 0.00 0.72 0.57 73 1012.3
20260507100121 54 0 0.0 0.0 0.00 0.72 0.57 73 1012.2
20260507095554 54 0 0.0 0.9 0.00 0.72 0.57 73 1012.2
20260507095055 54 0 0.0 0.9 0.00 0.72 0.57 73 1012.2
20260507094602 54 0 0.0 0.0 0.00 0.72 0.57 73 1012.3
20260507094054 54 0 0.0 0.0 0.00 0.72 0.57 73 1012.3
20260507093555 54 0 0.0 0.0 0.00 0.72 0.57 73 1012.2
20260507093055 54 0 0.0 0.0 0.00 0.72 0.57 73 1012.0
20260507092554 54 0 0.0 0.0 0.00 0.72 0.57 73 1012.0
20260507092053 54 0 0.0 0.9 0.00 0.72 0.57 73 1011.9
20260507091632 54 0 0.0 0.9 0.00 0.72 0.57 73 1011.9
20260507091054 54 0 0.0 0.9 0.00 0.72 0.57 73 1011.7
20260507090555 54 0 0.0 0.0 0.00 0.72 0.57 73 1012.1
20260507090058 54 0 0.0 1.7 0.00 0.72 0.57 73 1011.9
20260507085554 54 0 0.0 1.7 0.00 0.72 0.57 73 1011.8
20260507085055 55 0 0.0 1.7 0.00 0.72 0.57 73 1011.8
20260507084604 54 0 0.0 0.0 0.00 0.72 0.57 73 1011.9
20260507084054 54 0 0.0 0.0 0.00 0.72 0.57 72 1011.9
20260507083555 55 0 0.0 0.0 0.00 0.72 0.57 72 1011.8
20260507083056 55 0 0.0 1.7 0.00 0.72 0.57 72 1012.1
20260507082554 55 0 0.0 1.7 0.00 0.72 0.57 72 1011.8
20260507082054 55 0 0.0 0.9 0.00 0.72 0.57 73 1011.7
20260507081600 55 0 0.0 1.7 0.00 0.72 0.57 73 1012.0
20260507081054 55 0 0.0 1.7 0.00 0.72 0.57 73 1011.7
20260507080554 55 0 0.0 1.7 0.00 0.72 0.57 74 1011.4
20260507080056 55 0 0.0 1.7 0.00 0.72 0.57 74 1011.3
20260507075554 55 9 0.0 1.7 0.00 0.72 0.57 74 1011.2
20260507075054 55 0 0.0 1.7 0.00 0.72 0.57 74 1011.2
20260507074559 55 0 0.0 0.9 0.00 0.72 0.57 74 1011.3
20260507074056 55 0 0.0 1.7 0.00 0.72 0.57 74 1011.4
20260507073553 55 0 0.0 1.7 0.00 0.72 0.57 74 1011.3
20260507073057 55 0 0.0 0.9 0.00 0.72 0.57 74 1010.9
20260507072554 55 0 0.0 0.9 0.00 0.72 0.57 74 1010.9
20260507072053 55 0 0.0 0.9 0.00 0.72 0.57 74 1011.1
20260507071556 55 0 0.0 0.0 0.00 0.72 0.57 74 1011.2
20260507071055 56 0 0.0 0.9 0.00 0.72 0.57 74 1011.1
20260507070554 56 0 0.0 1.7 0.00 0.72 0.57 74 1011.0
20260507070057 56 0 0.0 3.5 0.00 0.72 0.57 74 1011.0
20260507065556 56 10 0.0 3.5 0.00 0.72 0.57 74 1011.0
20260507065054 56 0 0.0 2.6 0.00 0.72 0.57 74 1010.9
20260507064554 56 0 0.0 2.6 0.01 0.72 0.57 75 1010.9
20260507064054 56 0 0.0 2.6 0.01 0.72 0.57 75 1011.1
20260507063553 56 352 0.9 6.1 0.01 0.72 0.57 76 1010.7
20260507063055 56 317 0.9 6.1 0.02 0.72 0.57 77 1010.8
20260507062554 57 305 0.9 6.1 0.02 0.72 0.57 78 1011.0
20260507062054 57 0 0.9 5.2 0.03 0.72 0.57 79 1010.9
20260507061553 57 296 1.7 5.2 0.03 0.72 0.57 79 1010.7
20260507061056 57 333 0.0 2.6 0.03 0.72 0.57 80 1010.9
20260507060557 57 0 0.0 2.6 0.03 0.72 0.57 79 1010.9
20260507060059 57 320 0.0 1.7 0.04 0.72 0.57 80 1010.6
20260507055554 58 0 0.0 1.7 0.04 0.72 0.57 80 1010.2
20260507055054 58 0 0.0 1.7 0.05 0.72 0.57 79 1009.8
20260507054554 58 320 0.0 1.7 0.04 0.71 0.56 79 1010.3
20260507054056 58 0 0.0 0.9 0.07 0.71 0.56 79 1010.7
20260507053637 58 0 0.0 0.0 0.24 0.71 0.56 79 1010.5
20260507053055 58 0 0.0 0.0 0.32 0.70 0.55 78 1010.9
20260507052559 58 0 0.0 0.0 0.48 0.70 0.55 77 1010.7
20260507052056 58 0 0.0 0.0 0.52 0.69 0.54 75 1010.8
20260507051558 58 0 0.0 0.9 0.52 0.69 0.54 73 1011.0
20260507051057 58 0 0.0 0.9 0.54 0.69 0.54 72 1011.3
20260507050553 58 0 0.0 0.9 0.54 0.69 0.54 71 1011.3
20260507050057 58 0 0.0 0.9 0.52 0.68 0.52 69 1010.8
20260507045556 58 0 0.0 1.7 0.52 0.68 0.52 69 1010.5
20260507045056 58 0 0.0 5.2 0.52 0.67 0.52 68 1010.8
20260507044616 59 0 0.0 5.2 0.52 0.67 0.52 67 1011.1
20260507044055 59 320 0.9 5.2 0.49 0.64 0.49 66 1011.2
20260507043555 60 326 0.0 3.5 0.32 0.47 0.32 65 1011.7
20260507043109 61 17 1.7 3.5 0.23 0.38 0.23 63 1011.0
20260507042556 62 316 0.0 4.3 0.07 0.22 0.07 61 1011.1
20260507042055 63 330 0.9 4.3 0.02 0.17 0.02 59 1010.7
20260507041558 63 0 0.9 6.1 0.01 0.16 0.01 58 1010.6
20260507041055 64 311 0.9 7.8 0.00 0.15 0.00 55 1010.6
20260507040556 64 5 2.6 7.8 0.00 0.15 0.00 54 1010.7
20260507040059 65 333 0.9 6.1 0.00 0.15 0.00 54 1010.7
20260507035555 65 15 0.9 7.0 0.00 0.15 0.15 55 1010.5
20260507035055 65 311 0.9 7.0 0.00 0.15 0.15 56 1010.3
20260507034557 66 19 1.7 7.0 0.00 0.15 0.15 56 1010.2
20260507034055 66 346 2.6 7.0 0.00 0.15 0.15 57 1010.3
20260507033555 67 290 0.9 4.3 0.00 0.15 0.15 58 1010.4
20260507033102 67 315 0.9 4.3 0.00 0.15 0.15 59 1010.3
20260507032559 67 11 0.9 3.5 0.00 0.15 0.15 59 1010.1
20260507032055 67 40 0.0 2.6 0.00 0.15 0.15 59 1010.2
20260507031556 67 0 0.0 2.6 0.00 0.15 0.15 59 1010.2
20260507031058 67 0 0.0 2.6 0.00 0.15 0.15 59 1009.9
20260507030555 67 0 0.0 2.6 0.00 0.15 0.15 59 1009.6
20260507030059 67 21 0.0 3.5 0.00 0.15 0.15 59 1009.7
20260507025555 67 0 0.9 3.5 0.00 0.15 0.15 60 1009.6
20260507025059 67 21 0.9 3.5 0.00 0.15 0.15 61 1009.8
20260507024558 67 352 0.9 3.5 0.00 0.15 0.15 62 1009.9
20260507024056 67 0 0.0 1.7 0.00 0.15 0.15 64 1009.8
20260507023555 67 0 0.0 1.7 0.00 0.15 0.15 64 1009.7
20260507023108 67 129 0.0 0.0 0.00 0.15 0.15 65 1009.5
20260507022555 67 0 0.0 0.0 0.00 0.15 0.15 66 1009.5
20260507022056 66 0 0.0 0.0 0.00 0.15 0.15 66 1009.5
20260507021555 66 0 0.0 0.0 0.00 0.15 0.15 66 1009.1
20260507021055 66 0 0.0 0.0 0.00 0.15 0.15 66 1009.0
20260507020555 66 0 0.0 0.0 0.00 0.15 0.15 66 1009.1
20260507020105 67 0 0.0 0.0 0.00 0.15 0.15 66 1009.0
20260507015555 67 0 0.0 0.0 0.00 0.15 0.15 65 1009.3
20260507015055 67 0 0.0 0.0 0.00 0.15 0.15 65 1009.5
20260507014557 67 0 0.0 0.0 0.00 0.15 0.15 64 1009.4
20260507014056 67 0 0.0 0.0 0.00 0.15 0.15 64 1009.5
20260507013556 67 0 0.0 0.0 0.00 0.15 0.15 64 1009.5
20260507013058 67 0 0.0 0.0 0.00 0.15 0.15 63 1009.6
20260507012555 67 0 0.0 0.0 0.00 0.15 0.15 63 1009.5
20260507012055 68 0 0.0 0.0 0.00 0.15 0.15 62 1009.7
20260507011558 68 0 0.0 0.0 0.00 0.15 0.15 62 1009.5
20260507011055 68 0 0.0 0.0 0.00 0.15 0.15 62 1009.6
20260507010555 68 0 0.0 0.0 0.00 0.15 0.15 62 1009.7
20260507010057 68 0 0.0 0.0 0.00 0.15 0.15 62 1009.9
20260507005556 68 0 0.0 0.0 0.00 0.15 0.15 62 1009.9
20260507005057 67 0 0.0 0.0 0.00 0.15 0.15 63 1009.7
20260507004556 67 0 0.0 0.0 0.00 0.15 0.15 63 1009.4
20260507004055 67 0 0.0 0.0 0.00 0.15 0.15 63 1009.4
20260507003556 67 0 0.0 0.0 0.00 0.15 0.15 64 1009.2
20260507003114 68 0 0.0 0.0 0.00 0.15 0.15 63 1009.4
20260507002555 68 0 0.0 0.0 0.00 0.15 0.15 63 1009.2
20260507002055 68 0 0.0 0.0 0.00 0.15 0.15 63 1009.1
20260507001616 68 0 0.0 0.0 0.00 0.15 0.15 63 1009.4
20260507001054 68 0 0.0 0.0 0.00 0.15 0.15 62 1009.4
20260507000557 68 0 0.0 0.0 0.00 0.15 0.15 62 1009.2
20260507000057 68 0 0.0 0.0 0.00 0.15 0.15 62 1008.7
20260506235556 68 0 0.0 0.0 0.00 0.15 0.15 62 1008.8
20260506235057 69 0 0.0 0.0 0.00 0.15 0.15 62 1008.9
20260506234557 69 0 0.0 0.0 0.00 0.15 0.15 62 1008.6
20260506234058 69 0 0.0 0.9 0.00 0.15 0.15 62 1008.4
20260506233557 69 0 0.0 0.9 0.00 0.15 0.15 62 1008.2
20260506233055 69 0 0.0 0.9 0.00 0.15 0.15 62 1008.2
20260506232556 69 0 0.0 0.0 0.00 0.15 0.15 62 1008.3
20260506232052 69 0 0.0 0.0 0.00 0.15 0.15 62 1008.3
20260506231604 69 0 0.0 0.0 0.00 0.15 0.15 62 1008.3
20260506231055 69 0 0.0 0.0 0.00 0.15 0.15 62 1008.4
20260506230554 69 0 0.0 0.0 0.00 0.15 0.15 61 1008.4
20260506230109 69 0 0.0 0.0 0.00 0.15 0.15 61 1008.3
20260506225557 69 0 0.0 0.0 0.00 0.15 0.15 61 1008.3
20260506225055 69 0 0.0 0.0 0.00 0.15 0.15 61 1008.3
20260506224556 70 0 0.0 0.0 0.00 0.15 0.15 61 1008.3
20260506224057 69 0 0.0 0.0 0.00 0.15 0.15 61 1008.3
20260506223558 69 0 0.0 0.0 0.00 0.15 0.15 60 1008.3
20260506223103 69 0 0.0 0.0 0.00 0.15 0.15 61 1008.2
20260506222557 69 0 0.0 0.0 0.00 0.15 0.15 60 1008.4
20260506222059 69 0 0.0 0.0 0.00 0.15 0.15 61 1008.2
20260506221607 69 0 0.0 0.0 0.00 0.15 0.15 61 1008.3
20260506221055 69 0 0.0 0.0 0.00 0.15 0.15 61 1008.3
20260506220555 69 0 0.0 0.0 0.00 0.15 0.15 60 1008.3
20260506220056 69 0 0.0 0.0 0.00 0.15 0.15 61 1008.4
20260506215559 69 0 0.0 0.9 0.00 0.15 0.15 61 1008.5
20260506215058 69 0 0.0 3.5 0.00 0.15 0.15 60 1008.4
20260506214556 69 165 0.0 3.5 0.00 0.15 0.15 60 1008.5
20260506214055 68 165 0.9 3.5 0.00 0.15 0.15 60 1008.5
20260506213554 68 165 0.9 3.5 0.00 0.15 0.15 60 1008.5
20260506213102 68 165 0.9 3.5 0.00 0.15 0.15 60 1008.4
20260506212555 68 165 0.9 4.3 0.00 0.15 0.15 60 1008.4
20260506212058 68 165 0.9 4.3 0.00 0.15 0.15 60 1008.3
20260506211556 68 165 1.7 3.5 0.00 0.15 0.15 60 1008.2
20260506211055 68 159 0.9 3.5 0.00 0.15 0.15 61 1008.3
20260506210555 68 159 0.9 3.5 0.00 0.15 0.15 60 1008.2
20260506210059 68 159 0.9 3.5 0.00 0.15 0.15 61 1008.1
20260506205558 68 160 0.9 3.5 0.00 0.15 0.15 60 1008.4
20260506205055 68 160 0.9 3.5 0.00 0.15 0.15 61 1008.2
20260506204601 68 160 0.9 4.3 0.00 0.15 0.15 62 1008.2
20260506204056 68 160 1.7 4.3 0.00 0.15 0.15 61 1008.1
20260506203555 68 160 1.7 4.3 0.00 0.15 0.15 61 1008.0
20260506203122 68 0 0.9 4.3 0.00 0.15 0.15 61 1008.2
20260506202555 68 160 0.9 3.5 0.00 0.15 0.15 62 1008.1
20260506202055 68 160 0.9 3.5 0.00 0.15 0.15 62 1008.1
20260506201558 68 160 1.7 3.5 0.00 0.15 0.15 61 1008.1
20260506201057 67 157 0.9 4.3 0.00 0.15 0.15 62 1008.2
20260506200601 67 161 1.7 4.3 0.00 0.15 0.15 61 1008.1
20260506200059 67 154 0.9 4.3 0.00 0.15 0.15 62 1008.1
20260506195555 67 154 0.9 4.3 0.00 0.15 0.15 62 1008.2
20260506195055 67 154 1.7 4.3 0.00 0.15 0.15 63 1008.2
20260506194600 67 153 1.7 4.3 0.00 0.15 0.15 63 1008.5
20260506194055 67 154 1.7 4.3 0.00 0.15 0.15 62 1008.6
20260506193554 66 155 0.9 3.5 0.00 0.15 0.15 63 1008.4
20260506193104 66 155 0.9 2.6 0.00 0.15 0.15 63 1008.7
20260506192556 66 0 0.9 4.3 0.00 0.15 0.15 62 1008.7
20260506192056 66 155 1.7 4.3 0.00 0.15 0.15 62 1008.9
20260506191554 66 150 0.9 4.3 0.00 0.15 0.15 62 1009.0
20260506191057 66 164 0.9 4.3 0.00 0.15 0.15 62 1008.9
20260506190556 66 165 0.9 3.5 0.00 0.15 0.15 63 1009.3
20260506190055 66 165 0.9 4.3 0.00 0.15 0.15 62 1009.3
20260506185555 66 163 1.7 4.3 0.00 0.15 0.15 62 1009.3
20260506185055 66 155 0.9 2.6 0.00 0.15 0.15 63 1009.4
20260506184554 66 146 0.9 3.5 0.00 0.15 0.15 63 1009.3
20260506184055 66 51 0.9 3.5 0.00 0.15 0.15 63 1009.3
20260506183558 66 164 0.9 3.5 0.00 0.15 0.15 63 1009.4
20260506183104 66 0 0.9 3.5 0.00 0.15 0.15 63 1009.4
20260506182554 66 0 0.9 4.3 0.00 0.15 0.15 63 1009.3
20260506182054 66 0 0.9 4.3 0.00 0.15 0.15 63 1009.3
20260506181558 65 155 0.9 4.3 0.00 0.15 0.15 64 1009.2
20260506181055 65 155 0.9 4.3 0.00 0.15 0.15 64 1009.4
20260506180555 65 157 0.9 4.3 0.00 0.15 0.15 64 1009.4
20260506180057 65 157 1.7 4.3 0.00 0.15 0.15 64 1009.7
20260506175554 65 165 0.9 5.2 0.00 0.15 0.15 65 1009.5
20260506175057 65 169 1.7 5.2 0.00 0.15 0.15 64 1009.5
20260506174556 65 161 2.6 5.2 0.00 0.15 0.15 64 1009.6
20260506174055 65 171 1.7 4.3 0.00 0.15 0.15 65 1009.6
20260506173555 64 168 1.7 5.2 0.00 0.15 0.15 65 1009.8
20260506173100 64 164 1.7 5.2 0.00 0.15 0.15 66 1009.7
20260506172555 64 216 1.7 5.2 0.00 0.15 0.15 66 1009.7
20260506172056 64 164 1.7 5.2 0.00 0.15 0.15 65 1009.7
20260506171556 64 157 1.7 5.2 0.00 0.15 0.15 66 1009.8
20260506171055 64 161 2.6 4.3 0.00 0.15 0.15 66 1009.8
20260506170555 64 215 1.7 4.3 0.00 0.15 0.15 68 1009.8
20260506170108 64 158 1.7 5.2 0.00 0.15 0.15 68 1009.8
20260506165555 64 165 1.7 5.2 0.00 0.15 0.15 70 1010.0
20260506165055 64 172 1.7 4.3 0.00 0.15 0.15 72 1009.9
20260506164626 63 170 1.7 4.3 0.00 0.15 0.15 75 1009.9
20260506164054 63 158 1.7 4.3 0.00 0.15 0.15 75 1009.8
20260506163554 63 190 1.7 5.2 0.00 0.15 0.15 76 1009.9
20260506163112 62 159 2.6 5.2 0.00 0.15 0.15 78 1010.0
20260506162554 62 159 2.6 4.3 0.00 0.15 0.15 78 1010.2
20260506162055 62 165 1.7 4.3 0.00 0.15 0.15 79 1010.1
20260506161601 62 158 1.7 4.3 0.00 0.15 0.15 80 1010.1
20260506161058 62 236 1.7 4.3 0.01 0.15 0.15 80 1010.1
20260506160555 62 170 1.7 4.3 0.01 0.15 0.15 80 1010.2
20260506160120 62 141 1.7 3.5 0.01 0.15 0.15 81 1010.2
20260506155555 62 138 0.9 4.3 0.01 0.15 0.15 81 1010.2
20260506155056 62 138 0.9 4.3 0.02 0.15 0.15 81 1010.2
20260506154559 62 151 0.9 4.3 0.02 0.15 0.15 81 1010.4
20260506154055 62 154 1.7 4.3 0.03 0.15 0.15 81 1010.4
20260506153558 62 166 0.9 4.3 0.05 0.15 0.15 81 1010.3
20260506153058 61 150 0.9 4.3 0.06 0.15 0.15 81 1010.4
20260506152554 61 150 0.9 2.6 0.06 0.15 0.15 81 1010.5
20260506152056 61 150 0.9 2.6 0.06 0.15 0.15 81 1010.4
20260506151600 61 150 0.9 2.6 0.06 0.15 0.15 81 1010.3
20260506151054 61 150 0.9 2.6 0.05 0.14 0.14 79 1010.4
20260506150556 61 185 0.0 2.6 0.06 0.14 0.14 78 1010.7
20260506150103 61 184 0.9 2.6 0.06 0.14 0.14 78 1010.6
20260506145555 61 0 0.0 2.6 0.06 0.14 0.14 77 1010.7
20260506145054 61 142 0.9 2.6 0.07 0.13 0.13 76 1010.9
20260506144557 61 142 0.9 2.6 0.08 0.13 0.13 74 1011.0
20260506144054 61 142 0.9 2.6 0.07 0.12 0.12 74 1011.1
20260506143554 61 130 0.9 2.6 0.06 0.10 0.10 74 1011.1
20260506143054 61 128 0.9 2.6 0.05 0.09 0.09 74 1011.0
20260506142554 61 80 0.9 2.6 0.05 0.09 0.09 72 1010.9
20260506142054 61 80 0.9 2.6 0.06 0.09 0.09 72 1010.8
20260506141556 61 0 0.9 1.7 0.06 0.09 0.09 71 1010.9
20260506141055 61 80 0.9 1.7 0.07 0.09 0.09 69 1010.8
20260506140555 61 80 0.9 1.7 0.06 0.08 0.08 69 1010.8
20260506140056 61 80 0.0 1.7 0.07 0.08 0.08 68 1011.0
20260506135554 61 79 0.0 0.9 0.07 0.08 0.08 67 1010.9
20260506135054 61 0 0.0 0.9 0.05 0.06 0.06 66 1010.9
20260506134555 62 0 0.0 0.0 0.04 0.05 0.05 66 1011.0
20260506134054 62 0 0.0 0.0 0.04 0.05 0.05 66 1011.1
20260506133555 62 0 0.0 2.6 0.03 0.04 0.04 65 1011.1
20260506133108 62 0 0.0 2.6 0.03 0.04 0.04 65 1011.2
20260506132556 62 65 0.0 0.0 0.03 0.04 0.04 65 1011.2
20260506132056 62 0 0.0 0.0 0.02 0.03 0.03 64 1011.3
20260506131615 62 0 0.0 0.0 0.03 0.03 0.03 63 1011.3
20260506131054 62 0 0.0 0.0 0.02 0.02 0.02 63 1011.1
20260506130554 62 0 0.0 0.0 0.02 0.02 0.02 62 1011.1
20260506130054 63 0 0.0 0.0 0.01 0.01 0.01 62 1011.0
20260506125554 63 0 0.0 0.9 0.01 0.01 0.01 62 1011.1
20260506125056 63 0 0.0 0.9 0.01 0.01 0.01 62 1010.9
20260506124557 63 0 0.0 0.9 0.01 0.01 0.01 62 1010.8
20260506124054 63 0 0.0 0.9 0.01 0.01 0.01 62 1010.8
20260506123555 63 0 0.0 0.0 0.01 0.01 0.01 62 1010.6
20260506123055 63 0 0.0 2.6 0.01 0.01 0.01 61 1010.6
20260506122555 63 0 0.0 2.6 0.01 0.01 0.01 61 1010.6
20260506122054 63 146 0.0 1.7 0.01 0.01 0.01 60 1010.6
20260506121558 63 0 0.0 1.7 0.00 0.00 0.00 60 1010.4